RLTS3 YMES-YMES

Flight info

Callsign RLTS3
Flight time 0h 51m
Altitude 5000
Route ESL DCT R360 DCT ESL
Aircraft PC21/L-V/N

Departure

Time 2026-04-22 10:41
Airport RAAF Base East Sale (YMES)

Arrival

Time 2026-04-22 11:33
Airport RAAF Base East Sale (YMES)
Time Latitude Longitude Altitude Speed Heading
2026-04-22 10:34 -38.09905 147.13631 23 ft 0 kts 188°
2026-04-22 10:36 -38.09926 147.13621 27 ft 2 kts 242°
2026-04-22 10:36 -38.09919 147.13578 26 ft 8 kts 282°
2026-04-22 10:36 -38.09888 147.13574 27 ft 8 kts 10°
2026-04-22 10:37 -38.09864 147.13516 27 ft 15 kts 278°
2026-04-22 10:37 -38.09766 147.13388 24 ft 11 kts 279°
2026-04-22 10:37 -38.09763 147.13367 24 ft 12 kts 279°
2026-04-22 10:38 -38.09742 147.13209 23 ft 21 kts 280°
2026-04-22 10:38 -38.09723 147.13038 20 ft 17 kts 276°
2026-04-22 10:38 -38.09711 147.12933 20 ft 11 kts 279°
2026-04-22 10:38 -38.09702 147.12848 22 ft 8 kts 287°
2026-04-22 10:39 -38.09691 147.12828 25 ft 0 kts 329°
2026-04-22 10:39 -38.09663 147.12824 23 ft 20 kts
2026-04-22 10:40 -38.09569 147.12874 25 ft 10 kts 72°
2026-04-22 10:40 -38.09575 147.12964 23 ft 11 kts 102°
2026-04-22 10:40 -38.09581 147.12998 26 ft 0 kts 99°
2026-04-22 10:41 -38.09588 147.13058 23 ft 35 kts 99°
2026-04-22 10:41 -38.09662 147.13673 27 ft 109 kts 98°
2026-04-22 10:41 -38.09805 147.14853 170 ft 160 kts 98°
2026-04-22 10:41 -38.10012 147.16424 636 ft 197 kts 99°
2026-04-22 10:42 -38.10173 147.18190 1265 ft 205 kts 86°
2026-04-22 10:42 -38.09944 147.20014 1955 ft 213 kts 76°
2026-04-22 10:42 -38.09593 147.21882 2509 ft 224 kts 75°
2026-04-22 10:42 -38.09198 147.23885 2719 ft 242 kts 75°
2026-04-22 10:43 -38.08745 147.26019 2777 ft 257 kts 74°
2026-04-22 10:43 -38.08251 147.28250 2836 ft 266 kts 73°
2026-04-22 10:43 -38.07719 147.30525 2875 ft 276 kts 72°
2026-04-22 10:43 -38.07157 147.32869 2958 ft 280 kts 72°
2026-04-22 10:44 -38.06603 147.35236 3036 ft 280 kts 73°
2026-04-22 10:44 -38.06079 147.37614 3089 ft 280 kts 74°
2026-04-22 10:44 -38.05573 147.40010 3045 ft 282 kts 75°
2026-04-22 10:44 -38.05081 147.42409 2987 ft 281 kts 75°
2026-04-22 10:45 -38.04824 147.44882 2997 ft 290 kts 100°
2026-04-22 10:45 -38.06153 147.46605 3184 ft 291 kts 168°
2026-04-22 10:45 -38.07901 147.45613 3275 ft 301 kts 238°
2026-04-22 10:45 -38.07883 147.43132 3173 ft 298 kts 305°
2026-04-22 10:46 -38.06120 147.42064 3090 ft 290 kts
2026-04-22 10:46 -38.04179 147.42280 3158 ft 287 kts 339°
2026-04-22 10:46 -38.03268 147.40184 2946 ft 300 kts 261°
2026-04-22 10:46 -38.04713 147.38543 2843 ft 297 kts 182°
2026-04-22 10:47 -38.06358 147.39809 2375 ft 296 kts 111°
2026-04-22 10:47 -38.06224 147.42338 2476 ft 274 kts 77°
2026-04-22 10:47 -38.07033 147.44106 3337 ft 271 kts 171°
2026-04-22 10:47 -38.08348 147.42604 2623 ft 304 kts 273°
2026-04-22 10:48 -38.06954 147.41150 2315 ft 290 kts 13°
2026-04-22 10:48 -38.05386 147.42553 2755 ft 251 kts 31°
2026-04-22 10:48 -38.03917 147.41922 2965 ft 274 kts 289°
2026-04-22 10:48 -38.04869 147.40039 1947 ft 305 kts 181°
2026-04-22 10:49 -38.05908 147.41842 1295 ft 296 kts 68°
2026-04-22 10:49 -38.04629 147.43933 921 ft 293 kts 50°
2026-04-22 10:49 -38.04388 147.44291 4725 ft 121 kts 225°
2026-04-22 10:49 -38.04289 147.44422 1019 ft 291 kts 46°
2026-04-22 10:50 -38.03385 147.46563 1526 ft 270 kts 105°
2026-04-22 10:50 -38.04861 147.47235 2349 ft 270 kts 212°
2026-04-22 10:50 -38.05895 147.45048 1333 ft 314 kts 247°
2026-04-22 10:50 -38.06474 147.43272 3963 ft 17 kts 76°
2026-04-22 10:51 -38.06334 147.43893 3204 ft 69 kts 258°
2026-04-22 10:51 -38.06892 147.41525 965 ft 319 kts 229°
2026-04-22 10:51 -38.08567 147.41486 1826 ft 263 kts 120°
2026-04-22 10:51 -38.07967 147.43453 922 ft 289 kts 28°
2026-04-22 10:52 -38.06059 147.44333 933 ft 269 kts 21°
2026-04-22 10:52 -38.05077 147.45368 3152 ft 195 kts 51°
2026-04-22 10:52 -38.03459 147.46264 609 ft 310 kts 22°
2026-04-22 10:52 -38.02041 147.47769 1498 ft 259 kts 112°
2026-04-22 10:53 -38.03583 147.49023 1642 ft 294 kts 188°
2026-04-22 10:53 -38.05114 147.47232 1579 ft 320 kts 252°
2026-04-22 10:53 -38.04993 147.44490 1851 ft 318 kts 297°
2026-04-22 10:53 -38.05671 147.42127 1820 ft 321 kts 205°
2026-04-22 10:54 -38.07445 147.42773 1739 ft 275 kts 115°
2026-04-22 10:54 -38.06897 147.44833 1375 ft 283 kts 32°
2026-04-22 10:54 -38.05074 147.45790 1331 ft 282 kts 20°
2026-04-22 10:54 -38.03246 147.46685 1394 ft 281 kts 21°
2026-04-22 10:55 -38.01698 147.45833 1902 ft 283 kts 286°
2026-04-22 10:55 -38.02695 147.43880 1365 ft 300 kts 195°
2026-04-22 10:55 -38.04812 147.43373 851 ft 313 kts 187°
2026-04-22 10:55 -38.06928 147.42949 977 ft 302 kts 186°
2026-04-22 10:56 -38.08922 147.42945 1273 ft 274 kts 146°
2026-04-22 10:56 -38.09244 147.44950 1369 ft 262 kts 51°
2026-04-22 10:56 -38.07492 147.45482 1243 ft 279 kts 359°
2026-04-22 10:56 -38.05561 147.45287 1207 ft 283 kts 360°
2026-04-22 10:57 -38.03601 147.45078 1286 ft 280 kts
2026-04-22 10:57 -38.02020 147.46054 1710 ft 263 kts 66°
2026-04-22 10:57 -38.02607 147.48069 1735 ft 283 kts 150°
2026-04-22 10:57 -38.04598 147.47916 1321 ft 309 kts 199°
2026-04-22 10:58 -38.06574 147.46903 1289 ft 303 kts 200°
2026-04-22 10:58 -38.08510 147.45897 1310 ft 302 kts 200°
2026-04-22 10:58 -38.10400 147.44920 2376 ft 280 kts 199°
2026-04-22 10:58 -38.12176 147.44096 3369 ft 285 kts 201°
2026-04-22 10:59 -38.12256 147.41963 2581 ft 316 kts 330°
2026-04-22 10:59 -38.10084 147.41299 1961 ft 328 kts
2026-04-22 10:59 -38.07845 147.41645 1652 ft 326 kts 15°
2026-04-22 10:59 -38.05677 147.42350 1664 ft 318 kts 18°
2026-04-22 11:00 -38.03556 147.43326 1301 ft 327 kts 26°
2026-04-22 11:00 -38.01636 147.44779 1341 ft 318 kts 41°
2026-04-22 11:00 -38.00055 147.46663 1452 ft 315 kts 53°
2026-04-22 11:00 -37.99554 147.49280 1593 ft 317 kts 98°
2026-04-22 11:01 -38.00859 147.51489 1540 ft 332 kts 150°
2026-04-22 11:01 -38.02956 147.51802 1556 ft 304 kts 191°
2026-04-22 11:01 -38.04740 147.50462 1563 ft 305 kts 225°
2026-04-22 11:01 -38.06141 147.48430 1521 ft 304 kts 228°
2026-04-22 11:02 -38.07481 147.46399 1650 ft 300 kts 230°
2026-04-22 11:02 -38.08698 147.44271 1776 ft 299 kts 245°
2026-04-22 11:02 -38.08991 147.41711 1939 ft 299 kts 283°
2026-04-22 11:02 -38.07992 147.39563 1947 ft 288 kts 325°
2026-04-22 11:03 -38.06126 147.39041 1593 ft 286 kts 17°
2026-04-22 11:03 -38.04608 147.40632 1035 ft 288 kts 56°
2026-04-22 11:03 -38.03470 147.42667 1104 ft 276 kts 56°
2026-04-22 11:03 -38.02394 147.44618 1069 ft 264 kts 56°
2026-04-22 11:04 -38.01351 147.46524 1000 ft 261 kts 56°
2026-04-22 11:04 -38.00352 147.48389 1327 ft 248 kts 58°
2026-04-22 11:04 -38.00021 147.50517 1467 ft 268 kts 107°
2026-04-22 11:04 -38.01539 147.51893 1120 ft 296 kts 172°
2026-04-22 11:05 -38.03472 147.51041 840 ft 311 kts 219°
2026-04-22 11:05 -38.04750 147.48888 1007 ft 302 kts 239°
2026-04-22 11:05 -38.05760 147.46603 1240 ft 295 kts 241°
2026-04-22 11:05 -38.06717 147.44309 1460 ft 295 kts 242°
2026-04-22 11:06 -38.07680 147.42027 1569 ft 296 kts 241°
2026-04-22 11:06 -38.08263 147.39550 1717 ft 300 kts 277°
2026-04-22 11:06 -38.07093 147.37563 1349 ft 295 kts 343°
2026-04-22 11:06 -38.05078 147.37670 900 ft 293 kts 14°
2026-04-22 11:07 -38.03111 147.38210 739 ft 293 kts 13°
2026-04-22 11:07 -38.01115 147.38736 631 ft 293 kts 12°
2026-04-22 11:07 -37.99150 147.39173 982 ft 236 kts 11°
2026-04-22 11:07 -37.99074 147.39168 4361 ft 112 kts 186°
2026-04-22 11:08 -37.98579 147.39264 616 ft 304 kts 12°
2026-04-22 11:08 -37.97481 147.41062 818 ft 288 kts 109°
2026-04-22 11:08 -37.99151 147.41729 802 ft 295 kts 211°
2026-04-22 11:08 -38.00032 147.39492 719 ft 296 kts 271°
2026-04-22 11:09 -37.99115 147.37344 849 ft 282 kts 317°
2026-04-22 11:09 -37.97710 147.35862 1992 ft 247 kts 343°
2026-04-22 11:09 -37.96396 147.36857 1633 ft 268 kts 77°
2026-04-22 11:09 -37.97190 147.38950 982 ft 300 kts 153°
2026-04-22 11:10 -37.99276 147.39040 630 ft 306 kts 186°
2026-04-22 11:10 -38.01359 147.38665 696 ft 298 kts 191°
2026-04-22 11:10 -38.02789 147.37058 1496 ft 274 kts 242°
2026-04-22 11:10 -38.03623 147.34956 2134 ft 266 kts 242°
2026-04-22 11:11 -38.05150 147.34051 2218 ft 268 kts 154°
2026-04-22 11:11 -38.05731 147.36084 1667 ft 278 kts 67°
2026-04-22 11:11 -38.04313 147.37727 1049 ft 296 kts 24°
2026-04-22 11:11 -38.02302 147.38426 752 ft 301 kts 14°
2026-04-22 11:12 -38.00254 147.38932 568 ft 297 kts 11°
2026-04-22 11:12 -37.98774 147.39247 3105 ft 10 kts 184°
2026-04-22 11:12 -37.99303 147.39109 2596 ft 66 kts 20°
2026-04-22 11:12 -37.97508 147.39208 587 ft 304 kts 330°
2026-04-22 11:13 -37.97373 147.36966 677 ft 294 kts 218°
2026-04-22 11:13 -37.99121 147.37291 687 ft 278 kts 128°
2026-04-22 11:13 -37.99372 147.39506 796 ft 270 kts 60°
2026-04-22 11:13 -37.98012 147.40928 1679 ft 233 kts 52°
2026-04-22 11:14 -37.98429 147.42693 1434 ft 285 kts 161°
2026-04-22 11:14 -38.00097 147.41498 784 ft 312 kts 255°
2026-04-22 11:14 -37.99970 147.38801 506 ft 310 kts 278°
2026-04-22 11:14 -37.99892 147.37712 3693 ft 123 kts 101°
2026-04-22 11:15 -37.99865 147.37517 614 ft 321 kts 280°
2026-04-22 11:15 -37.98621 147.35630 830 ft 303 kts
2026-04-22 11:15 -37.97254 147.37164 965 ft 273 kts 72°
2026-04-22 11:15 -37.96925 147.39500 961 ft 272 kts 81°
2026-04-22 11:16 -37.96680 147.41866 1089 ft 270 kts 87°
2026-04-22 11:16 -37.97618 147.43764 1240 ft 278 kts 157°
2026-04-22 11:16 -37.99501 147.43320 1139 ft 295 kts 215°
2026-04-22 11:16 -38.00254 147.40977 807 ft 303 kts 276°
2026-04-22 11:17 -37.99965 147.38363 795 ft 298 kts 278°
2026-04-22 11:17 -37.99681 147.35841 874 ft 283 kts 279°
2026-04-22 11:17 -37.99419 147.33479 1207 ft 276 kts 282°
2026-04-22 11:17 -37.98546 147.31610 2361 ft 240 kts 344°
2026-04-22 11:18 -37.97209 147.32474 2262 ft 254 kts 73°
2026-04-22 11:18 -37.97692 147.34762 1306 ft 300 kts 121°
2026-04-22 11:18 -37.98859 147.37008 869 ft 290 kts 123°
2026-04-22 11:18 -37.99096 147.37275 4602 ft 123 kts 296°
2026-04-22 11:19 -37.99248 147.37520 822 ft 310 kts 117°
2026-04-22 11:19 -37.99448 147.40110 730 ft 307 kts 60°
2026-04-22 11:19 -37.98186 147.42003 1657 ft 261 kts 75°
2026-04-22 11:19 -37.99117 147.43728 1746 ft 286 kts 173°
2026-04-22 11:20 -38.00377 147.42048 1080 ft 311 kts 271°
2026-04-22 11:20 -38.00087 147.39335 546 ft 314 kts 280°
2026-04-22 11:20 -37.99718 147.36660 606 ft 306 kts 281°
2026-04-22 11:20 -37.99343 147.34161 1467 ft 269 kts 290°
2026-04-22 11:21 -37.97990 147.33347 2066 ft 248 kts 37°
2026-04-22 11:21 -37.97859 147.35492 1131 ft 288 kts 111°
2026-04-22 11:21 -37.98680 147.37779 1620 ft 222 kts 115°
2026-04-22 11:21 -37.99723 147.38775 2619 ft 193 kts 132°
2026-04-22 11:22 -38.00535 147.41024 547 ft 311 kts 103°
2026-04-22 11:22 -37.99573 147.42869 1505 ft 270 kts 16°
2026-04-22 11:22 -37.97745 147.43208 1928 ft 269 kts
2026-04-22 11:22 -37.95889 147.43175 2114 ft 277 kts 336°
2026-04-22 11:23 -37.95140 147.41064 1709 ft 299 kts 252°
2026-04-22 11:23 -37.96824 147.39581 873 ft 318 kts 191°
2026-04-22 11:23 -37.98884 147.39149 1740 ft 173 kts 187°
2026-04-22 11:23 -37.98519 147.39162 4013 ft 109 kts
2026-04-22 11:24 -37.99814 147.38915 583 ft 321 kts 183°
2026-04-22 11:24 -38.01807 147.39045 1596 ft 275 kts 178°
2026-04-22 11:24 -38.03423 147.39075 1476 ft 215 kts 178°
2026-04-22 11:24 -38.04513 147.40123 1427 ft 221 kts 105°
2026-04-22 11:25 -38.04182 147.42112 1401 ft 266 kts 43°
2026-04-22 11:25 -38.02420 147.42917 1625 ft 290 kts 347°
2026-04-22 11:25 -38.01018 147.41195 2537 ft 279 kts 286°
2026-04-22 11:25 -38.01245 147.38941 2717 ft 261 kts 244°
2026-04-22 11:26 -38.02265 147.36914 2596 ft 274 kts 235°
2026-04-22 11:26 -38.03387 147.34921 2568 ft 281 kts 234°
2026-04-22 11:26 -38.04501 147.32909 2589 ft 278 kts 234°
2026-04-22 11:26 -38.05649 147.30881 2569 ft 285 kts 234°
2026-04-22 11:27 -38.06616 147.28666 2574 ft 287 kts 251°
2026-04-22 11:27 -38.06915 147.26212 2617 ft 285 kts 272°
2026-04-22 11:27 -38.06533 147.23746 2566 ft 286 kts 290°
2026-04-22 11:27 -38.05838 147.21381 2566 ft 286 kts 293°
2026-04-22 11:28 -38.05077 147.19048 2660 ft 284 kts 295°
2026-04-22 11:28 -38.04297 147.16760 2717 ft 285 kts 295°
2026-04-22 11:28 -38.03494 147.14451 2673 ft 288 kts 295°
2026-04-22 11:28 -38.02685 147.12118 2585 ft 290 kts 292°
2026-04-22 11:29 -38.02285 147.09614 2264 ft 294 kts 272°
2026-04-22 11:29 -38.02651 147.07041 1858 ft 300 kts 248°
2026-04-22 11:29 -38.03848 147.04973 1600 ft 296 kts 218°
2026-04-22 11:29 -38.05709 147.04061 1459 ft 290 kts 180°
2026-04-22 11:30 -38.07549 147.04785 1477 ft 276 kts 141°
2026-04-22 11:30 -38.08683 147.06705 1211 ft 277 kts 109°
2026-04-22 11:30 -38.09073 147.09133 637 ft 288 kts 98°
2026-04-22 11:30 -38.09401 147.11657 239 ft 290 kts 99°
2026-04-22 11:31 -38.09719 147.14143 179 ft 281 kts 99°
2026-04-22 11:31 -38.09379 147.16043 965 ft 226 kts
2026-04-22 11:31 -38.08703 147.14579 711 ft 193 kts 278°
2026-04-22 11:31 -38.08570 147.13074 802 ft 151 kts 279°
2026-04-22 11:32 -38.08419 147.11812 808 ft 145 kts 283°
2026-04-22 11:32 -38.08520 147.10605 772 ft 148 kts 224°
2026-04-22 11:32 -38.09333 147.10808 551 ft 145 kts 102°
2026-04-22 11:32 -38.09468 147.12064 168 ft 129 kts 99°
2026-04-22 11:33 -38.09606 147.13148 26 ft 116 kts 98°
2026-04-22 11:33 -38.09712 147.14003 26 ft 84 kts 98°
2026-04-22 11:33 -38.09782 147.14586 21 ft 36 kts 98°
2026-04-22 11:33 -38.09841 147.14723 18 ft 14 kts 193°
2026-04-22 11:34 -38.09904 147.14630 19 ft 12 kts 237°
2026-04-22 11:34 -38.09911 147.14549 25 ft 13 kts 279°
2026-04-22 11:34 -38.09902 147.14445 23 ft 14 kts 278°
2026-04-22 11:34 -38.09885 147.14317 23 ft 14 kts 281°
2026-04-22 11:35 -38.09871 147.14204 25 ft 11 kts 278°
2026-04-22 11:35 -38.09858 147.14107 27 ft 14 kts 279°
2026-04-22 11:35 -38.09876 147.14041 28 ft 7 kts 189°
2026-04-22 11:35 -38.09927 147.14014 27 ft 7 kts 258°
2026-04-22 11:36 -38.09915 147.13927 27 ft 13 kts 280°
2026-04-22 11:36 -38.09903 147.13830 27 ft 12 kts 279°
2026-04-22 11:36 -38.09886 147.13700 26 ft 16 kts 280°
2026-04-22 11:36 -38.09880 147.13635 26 ft 0 kts 229°
2026-04-22 11:37 -38.09898 147.13632 29 ft 3 kts 189°
2026-04-22 11:37 -38.09905 147.13630 26 ft 0 kts 190°